Weather History for Karlovy Vary, Czech Republic

Change the Weather History Date:

Friday, January 18, 2013

  Actual Average (EDQM) Record (EDQM)
Temperature  
Mean Temperature 20 °F -  
Max Temperature 23 °F 33 °F 50 °F (2007)
Min Temperature 17 °F 26 °F 17 °F (2001)
Degree Days  
Heating Degree Days 45    
Moisture  
Dew Point 17 °F    
Average Humidity 86    
Maximum Humidity 93    
Minimum Humidity 80    
Precipitation  
Precipitation 0.00 in - - ()
Sea Level Pressure  
Sea Level Pressure 29.72 in    
Wind  
Wind Speed 4 mph ()    
Max Wind Speed 8 mph    
Max Gust Speed -    
Visibility 5.7 miles    
Events Snow    
Averages and records for this station are not official NWS values.
T = Trace of Precipitation, MM = Missing Value Source: Averaged Metar Reports

Daily Weather History Graph

Daily Weather History Graph

Search for Another Location

Airport:

Trip Planner

Search our weather history database for the weather conditions in past years. The results will help you decide how hot, cold, wet, or windy it might be!

Date:

Astronomy

Jan. 18, 2013 Rise Set
Actual Time 7:59 AM CET 4:38 PM CET
Civil Twilight 7:22 AM CET 5:15 PM CET
Nautical Twilight 6:42 AM CET 5:55 PM CET
Astronomical Twilight 6:03 AM CET 6:34 PM CET
Moon 10:39 AM CET (1/18) No Moon Set
Length of Visible Light 9h 53m
Length of Day
8h 39m
Waxing Crescent, 45% of the Moon is Illuminated
Jan 18
Waxing Crescent
Jan 19
First Quarter
Jan 27
Full
Feb 3
Last Quarter
Feb 10
New

Hourly Weather History & Observations

Time (CET) Temp. Windchill Dew Point Humidity Pressure Visibility Wind Dir Wind Speed Gust Speed Precip Events Conditions
12:00 AM 23.0 °F 18.4 °F 19.4 °F 86% 29.83 in 6.2 mi NW 3.5 mph - N/A Snow Light Snow
1:00 AM 21.2 °F 16.4 °F 19.4 °F 93% 29.80 in 3.7 mi NNE 3.5 mph - N/A Snow Light Snow
2:00 AM 23.0 °F - 19.4 °F 86% 29.80 in 3.7 mi Variable 1.2 mph - N/A Snow Light Snow
3:00 AM 23.0 °F - 19.4 °F 86% 29.80 in 5.6 mi Variable 2.3 mph - N/A   Mostly Cloudy
4:00 AM 21.2 °F - 17.6 °F 86% 29.77 in 6.2 mi Variable 2.3 mph - N/A   Scattered Clouds
5:00 AM 21.2 °F - 19.4 °F 93% 29.77 in 6.2 mi Calm Calm - N/A   Mostly Cloudy
6:00 AM 21.2 °F 16.4 °F 19.4 °F 93% 29.77 in 6.2 mi NE 3.5 mph - N/A   Mostly Cloudy
7:00 AM 21.2 °F 16.4 °F 19.4 °F 93% 29.77 in 6.2 mi NNE 3.5 mph - N/A   Mostly Cloudy
7:30 AM 21.2 °F 14.9 °F 19.4 °F 93% 29.77 in 6.2 mi NE 4.6 mph - N/A Snow Light Snow
7:47 AM 21.2 °F 14.9 °F 19.4 °F 93% 29.77 in 3.1 mi NE 4.6 mph - N/A   Mostly Cloudy
8:00 AM 21.2 °F 12.6 °F 19.4 °F 93% 29.77 in 3.1 mi ENE 6.9 mph - N/A   Mostly Cloudy
8:30 AM 21.2 °F 14.9 °F 17.6 °F 86% 29.77 in 5.0 mi East 4.6 mph - N/A Snow Light Snow
9:00 AM 21.2 °F 14.9 °F 17.6 °F 86% 29.77 in 6.2 mi East 4.6 mph - N/A Snow Light Snow
9:30 AM 21.2 °F 13.6 °F 17.6 °F 86% 29.77 in 6.2 mi ENE 5.8 mph - N/A Snow Light Snow
10:00 AM 21.2 °F 11.7 °F 15.8 °F 80% 29.77 in 6.2 mi East 8.1 mph - N/A Snow Light Snow
10:30 AM 21.2 °F 13.6 °F 15.8 °F 80% 29.77 in 6.2 mi ENE 5.8 mph - N/A Snow Light Snow
11:00 AM 21.2 °F 11.7 °F 15.8 °F 80% 29.74 in 6.2 mi ENE 8.1 mph - N/A   Scattered Clouds
11:08 AM 21.2 °F 13.6 °F 15.8 °F 80% 29.74 in 6.2 mi ENE 5.8 mph - N/A Snow Light Snow
11:30 AM 21.2 °F 13.6 °F 15.8 °F 80% 29.74 in 6.2 mi ENE 5.8 mph - N/A   Mostly Cloudy
12:00 PM 21.2 °F 13.6 °F 15.8 °F 80% 29.74 in 6.2 mi NE 5.8 mph - N/A   Scattered Clouds
12:30 PM 21.2 °F 13.6 °F 15.8 °F 80% 29.74 in 6.2 mi ENE 5.8 mph - N/A   Partly Cloudy
1:00 PM 21.2 °F 14.9 °F 15.8 °F 80% 29.74 in 6.2 mi ENE 4.6 mph - N/A Snow Light Snow
1:30 PM 21.2 °F 13.6 °F 15.8 °F 80% 29.71 in 6.2 mi East 5.8 mph - N/A Snow Light Snow
2:00 PM 21.2 °F 14.9 °F 15.8 °F 80% 29.71 in 6.2 mi NE 4.6 mph - N/A Snow Light Snow
2:30 PM 21.2 °F 14.9 °F 15.8 °F 80% 29.68 in - ENE 4.6 mph - N/A   Clear
3:00 PM 21.2 °F 16.4 °F 15.8 °F 80% 29.68 in 6.2 mi ENE 3.5 mph - N/A   Partly Cloudy
3:30 PM 21.2 °F 14.9 °F 15.8 °F 80% 29.68 in - NE 4.6 mph - N/A   Clear
4:00 PM 19.4 °F 12.8 °F 15.8 °F 86% 29.68 in - NE 4.6 mph - N/A   Clear
4:30 PM 19.4 °F 11.5 °F 15.8 °F 86% 29.68 in 6.2 mi NE 5.8 mph - N/A   Mostly Cloudy
5:00 PM 19.4 °F 11.5 °F 15.8 °F 86% 29.68 in 6.2 mi ENE 5.8 mph - N/A   Mostly Cloudy
5:30 PM 19.4 °F 11.5 °F 15.8 °F 86% 29.68 in 6.2 mi ENE 5.8 mph - N/A   Mostly Cloudy
6:00 PM 19.4 °F - 15.8 °F 86% 29.68 in 6.2 mi Variable 2.3 mph - N/A   Mostly Cloudy
6:30 PM 19.4 °F - 15.8 °F 86% 29.65 in 6.2 mi North 2.3 mph - N/A   Mostly Cloudy
7:00 PM 17.6 °F 12.3 °F 15.8 °F 93% 29.65 in 6.2 mi North 3.5 mph - N/A   Mostly Cloudy
7:30 PM 17.6 °F 9.3 °F 15.8 °F 93% 29.65 in 6.2 mi East 5.8 mph - N/A   Mostly Cloudy
8:00 PM 17.6 °F 10.7 °F 15.8 °F 93% 29.65 in 6.2 mi East 4.6 mph - N/A   Overcast
9:00 PM 17.6 °F 10.7 °F 15.8 °F 93% 29.62 in 5.0 mi ESE 4.6 mph - N/A   Mostly Cloudy
10:00 PM 17.6 °F 12.3 °F 15.8 °F 93% 29.62 in 5.0 mi NE 3.5 mph - N/A   Mostly Cloudy
11:00 PM 17.6 °F 10.7 °F 15.8 °F 93% 29.59 in 5.0 mi NE 4.6 mph - N/A   Mostly Cloudy